Regional Weather Roundup
Issued by NWS Cleveland, OH

Home | Current Version | Previous Version | Text Only | Print | Product List | Glossary Off
Versions: 1 2 3 4 5 6 7 8 9 10 11 12 13 14 15 16 17 18 19 20 21 22 23 24 25 26 27 28 29 30 31 32 33 34 35 36 37 38 39 40 41 42 43 44 45 46 47 48 49 50

000
ASUS41 KCLE 262010
RWRCLE
OHIO REGIONAL WEATHER ROUNDUP
NATIONAL WEATHER SERVICE WILMINGTON, OH
300 PM EST THU FEB 26 2015

NOTE: "FAIR" INDICATES FEW OR NO CLOUDS BELOW 12,000 FEET WITH NO
SIGNIFICANT WEATHER AND/OR OBSTRUCTIONS TO VISIBILITY.

OHZ001>008-015>018-024>027-034-035-043-044-262100-
   NORTHWEST OHIO

CITY           SKY/WX    TMP DP  RH WIND       PRES   REMARKS
DEFIANCE       CLOUDY    16   5  62 NE6       30.17R WCI   7
FINDLAY        MOSUNNY   15   5  64 N15       30.13R WCI   0
TOLEDO EXPRESS CLOUDY    14   5  67 NW12      30.15R WCI   0
TOLEDO EXEC    PTSUNNY   17   5  59 NE7       30.17R WCI   8
LIMA           CLOUDY    14   4  64 NE12      30.12R WCI   0
$$

OHZ009>014-019>023-028>033-038-089-262100-
   NORTHEAST OHIO

CITY           SKY/WX    TMP DP  RH WIND       PRES   REMARKS
CLE-HOPKINS    LGT SNOW  13   6  74 N18       30.13R BLWGSNOWWCI  -4
CLE-LAKEFRONT  CLOUDY    14   7  73 N14       30.12S WCI  -1
CUY CO. ARPT   LGT SNOW  14   9  79 N13G21    30.10R WCI   0
LORAIN-ELYRIA  LGT SNOW  13   6  74 N17       30.11R WCI  -4
ASHTABULA      LGT SNOW  12   4  70 N12       30.08R WCI  -2
AKRON-CANTON   LGT SNOW  16   8  71 N17       30.02R WCI   0
WOOSTER        LGT SNOW  15   6  67 N13G22    30.04S WCI   1
MANSFIELD      CLOUDY    13   4  67 N13       30.05R WCI  -2
YOUNGSTOWN     SNOW      13   7  77 N15       30.02R VSB 1/2 WCI  -3
$$

OHZ042-051>053-060>062-070>072-077>081-262100-
  SOUTHWEST OHIO

CITY           SKY/WX    TMP DP  RH WIND       PRES   REMARKS
CINC-COVINGTON PTSUNNY   24  13  62 NW14      30.06S WCI  12
CINC-LUNKEN    CLOUDY    23  13  65 N8        30.11R WCI  14
HAMILTON       CLOUDY    21  11  65 N13       30.11S WCI   9
DAYTON         CLOUDY    18   8  65 N16       30.10R WCI   3
WRIGHT-PAT AFB PTSUNNY   18   8  62 N12       30.09R WCI   6
DAYTON GENERAL CLOUDY    20   9  62 N13       30.07R WCI   7
WILMINGTON     MIX PCPN  18   9  68 N13       30.05R WCI   5
$$

OHZ036-037-039>041-045>050-054>059-063>069-073>076-082>088-262100-
  CENTRAL AND SOUTHEAST OHIO

CITY           SKY/WX    TMP DP  RH WIND       PRES   REMARKS
COLUMBUS       MOSUNNY   18   7  62 N9        30.06R WCI   7
OSU AIRPORT    PTSUNNY   16   6  65 N14       30.07R WCI   2
BOLTON FIELD   PTSUNNY   18   7  62 N12       30.07R WCI   5
RICKENBACK AFB SUNNY     19   9  66 N13       30.06R WCI   6
NEWARK         PTSUNNY   20   9  62 N8        30.04R WCI  10
MARION         CLOUDY    14   6  70 N16       30.09R WCI  -2
LANCASTER      MOSUNNY   21  11  65 N8        30.06R WCI  11
ZANESVILLE     MOSUNNY   21  10  62 N9        30.02R WCI  11
NEW PHILLY     CLOUDY    20  10  65 N13       30.04R HAZE    WCI   7
$$


USA.gov is the U.S. government's official web portal to all federal, state and local government web resources and services.